Starlink 30517

operational
NORAD ID: 57995 Int'l Des: 2023-153 Owner: SPXS Country: US Constellation: starlink
LEOCIRCULAR

About Starlink 30517

Description loading...

Live Position

Loading 3D Globe...

Upcoming Passes

Altitude History

Altitude vs Time

uPlot chart will show altitude changes over time

Two-Line Element Set

1 57995U 23153E 25351.78250952 .00001125 00000-0 98365-4 0 9997
2 57995 43.0023 153.9592 0001254 266.5127 93.5572 15.02533848122559
Epoch: Dec 17, 2025 • Age: 16 hours

Current Status

Altitude 559.2 km
Velocity 7.59 km/s
Sub-Earth Point 23.00°N, 73.42°W
Launch Date Oct 5, 2023
Age 2.2 years
Type internet

Technical Details

Classification Payload
Mass 730.00 kg
Dry Mass 700.00 kg
Total Mass 730.00 kg
Length 0.30 m
Diameter 4.10 m
Span 29.00 m
Shape Box + pan
Manufacturer SPXS
Bus Type Starlink V2M
Phase Status In Orbit
Owner/State SPXS/US

Large Constellations

Loading constellations...